Location: Anuling
(14.1239°N, 120.8922°E)
Time: 04:49:26
(UTC+00:00)

OAO 3 Copernicus - Pass Details

Date: 14 January 2026
Orbit: 688 x 698 km, 35.0° (Epoch: 7 February)

Event Time Altitude Azimuth Distance (km) Brightness Sun altitude
Rises 10:44:28 0° 310° (NW) 3,042 8.1 -14.0°
Reaches altitude 10° 10:46:54 10° 314° (NW) 2,127 7.2 -14.5°
Maximum altitude 10:51:47 55° 32° (NNE) 824 4.4 -15.7°
Enters shadow 10:54:43 23° 102° (ESE) 1,441 5.4 -16.3°
